TimeEDT,TemperatureF,Dew PointF,Humidity,Sea Level PressureIn,VisibilityMPH,Wind Direction,Wind SpeedMPH,Gust SpeedMPH,PrecipitationIn,Events,Conditions,WindDirDegrees,DateUTC
12:15 AM,54.0,49.3,84,29.93,7.0,WNW,8.1,-,N/A,Rain,Light Rain,290,2013-03-19 04:15:00
12:35 AM,49.3,47.8,95,29.92,3.0,North,5.8,-,0.07,Rain,Heavy Rain,360,2013-03-19 04:35:00
12:55 AM,48.4,47.5,97,29.90,3.0,North,4.6,-,0.16,Rain,Heavy Rain,350,2013-03-19 04:55:00
1:15 AM,48.2,47.7,98,29.89,2.5,Calm,Calm,-,0.09,Rain,Heavy Rain,0,2013-03-19 05:15:00
1:35 AM,48.6,48.2,99,29.87,3.0,SE,3.5,-,0.15,Rain,Rain,130,2013-03-19 05:35:00
1:55 AM,49.1,48.7,99,29.84,3.0,ESE,5.8,-,0.19,Rain,Rain,120,2013-03-19 05:55:00
2:15 AM,49.6,49.3,99,29.81,4.0,SE,5.8,-,0.02,Rain,Light Rain,130,2013-03-19 06:15:00
2:35 AM,50.9,50.5,99,29.76,7.0,SSW,3.5,20.7,0.03,Rain,Light Rain,200,2013-03-19 06:35:00
2:55 AM,51.8,51.1,97,29.79,7.0,WNW,5.8,-,0.03,,Scattered Clouds,300,2013-03-19 06:55:00
3:15 AM,52.0,51.3,97,29.79,7.0,Calm,Calm,-,N/A,,Scattered Clouds,0,2013-03-19 07:15:00
3:35 AM,52.3,51.6,97,29.80,10.0,WNW,4.6,-,N/A,,Clear,290,2013-03-19 07:35:00
3:55 AM,52.2,51.6,98,29.80,7.0,WNW,4.6,-,N/A,,Mostly Cloudy,290,2013-03-19 07:55:00
4:15 AM,51.1,50.2,97,29.80,7.0,West,4.6,-,N/A,,Overcast,280,2013-03-19 08:15:00
4:35 AM,50.4,49.6,97,29.82,5.0,West,5.8,-,N/A,,Overcast,260,2013-03-19 08:35:00
4:55 AM,49.8,49.3,98,29.83,1.8,West,3.5,-,N/A,,Overcast,260,2013-03-19 08:55:00
5:15 AM,50.0,49.5,98,29.83,1.5,WSW,3.5,-,N/A,,Overcast,250,2013-03-19 09:15:00
5:35 AM,49.5,49.3,99,29.83,1.5,West,3.5,-,N/A,,Overcast,270,2013-03-19 09:35:00
5:55 AM,49.3,49.1,99,29.83,2.0,West,5.8,-,N/A,,Overcast,260,2013-03-19 09:55:00
6:15 AM,49.1,48.7,99,29.84,2.0,West,4.6,-,N/A,,Overcast,270,2013-03-19 10:15:00
6:35 AM,49.1,48.7,99,29.84,2.5,West,3.5,-,N/A,,Overcast,280,2013-03-19 10:35:00
6:55 AM,49.1,48.7,99,29.85,1.8,West,4.6,-,N/A,,Overcast,270,2013-03-19 10:55:00
7:15 AM,49.1,48.9,99,29.87,2.0,West,3.5,-,N/A,,Overcast,280,2013-03-19 11:15:00
7:35 AM,49.1,48.4,97,29.89,5.0,West,5.8,-,N/A,,Overcast,270,2013-03-19 11:35:00
7:55 AM,48.4,47.7,97,29.89,3.0,West,5.8,-,N/A,,Overcast,280,2013-03-19 11:55:00
8:15 AM,48.2,47.3,97,29.90,4.0,West,3.5,-,N/A,,Overcast,280,2013-03-19 12:15:00
8:35 AM,48.2,47.1,96,29.90,4.0,West,4.6,-,N/A,,Overcast,280,2013-03-19 12:35:00
8:55 AM,48.2,46.9,95,29.89,5.0,West,3.5,-,N/A,,Overcast,280,2013-03-19 12:55:00
9:15 AM,48.6,46.9,94,29.90,7.0,West,5.8,-,N/A,,Overcast,280,2013-03-19 13:15:00
9:35 AM,49.5,47.7,94,29.90,10.0,WNW,4.6,-,N/A,,Overcast,300,2013-03-19 13:35:00
9:55 AM,49.1,47.1,93,29.90,7.0,Calm,Calm,-,N/A,,Overcast,0,2013-03-19 13:55:00
10:15 AM,50.0,47.3,90,29.91,10.0,West,4.6,-,N/A,,Overcast,260,2013-03-19 14:15:00
10:35 AM,50.4,47.1,89,29.91,10.0,West,6.9,-,N/A,,Overcast,280,2013-03-19 14:35:00
10:55 AM,51.4,47.5,86,29.91,10.0,WNW,4.6,-,N/A,,Overcast,300,2013-03-19 14:55:00
11:15 AM,52.0,47.5,85,29.93,10.0,West,5.8,-,N/A,,Overcast,270,2013-03-19 15:15:00
11:35 AM,52.7,47.5,82,29.93,10.0,West,8.1,-,N/A,,Overcast,280,2013-03-19 15:35:00
11:55 AM,53.6,47.5,80,29.93,10.0,West,6.9,-,N/A,,Mostly Cloudy,280,2013-03-19 15:55:00
12:15 PM,54.7,47.1,76,29.93,10.0,West,5.8,-,N/A,,Scattered Clouds,270,2013-03-19 16:15:00
12:35 PM,56.5,47.1,71,29.93,10.0,WNW,6.9,-,N/A,,Clear,300,2013-03-19 16:35:00
12:55 PM,57.6,47.5,69,29.92,10.0,WNW,6.9,-,N/A,,Clear,290,2013-03-19 16:55:00
1:15 PM,59.2,47.1,64,29.93,10.0,NW,4.6,-,N/A,,Clear,320,2013-03-19 17:15:00
1:35 PM,60.3,46.9,61,29.92,10.0,West,8.1,-,N/A,,Clear,270,2013-03-19 17:35:00
1:55 PM,62.1,47.1,58,29.90,10.0,WNW,8.1,-,N/A,,Clear,290,2013-03-19 17:55:00
2:15 PM,62.8,45.9,54,29.89,10.0,WNW,5.8,-,N/A,,Clear,290,2013-03-19 18:15:00
2:35 PM,63.9,46.0,52,29.88,10.0,West,6.9,-,N/A,,Clear,280,2013-03-19 18:35:00
2:55 PM,65.1,45.9,50,29.88,10.0,West,10.4,-,N/A,,Clear,260,2013-03-19 18:55:00
3:15 PM,66.0,45.1,47,29.88,10.0,West,4.6,-,N/A,,Clear,270,2013-03-19 19:15:00
3:35 PM,66.9,46.2,47,29.87,10.0,WSW,6.9,-,N/A,,Clear,250,2013-03-19 19:35:00
3:55 PM,67.5,44.1,43,29.87,10.0,West,6.9,-,N/A,,Clear,280,2013-03-19 19:55:00
4:15 PM,68.2,43.0,40,29.87,10.0,West,4.6,-,N/A,,Clear,280,2013-03-19 20:15:00
4:35 PM,68.7,40.1,35,29.87,10.0,West,8.1,-,N/A,,Clear,270,2013-03-19 20:35:00
4:55 PM,69.3,39.7,34,29.87,10.0,West,4.6,-,N/A,,Clear,270,2013-03-19 20:55:00
5:15 PM,68.9,38.7,33,29.88,10.0,West,9.2,-,N/A,,Clear,260,2013-03-19 21:15:00
5:35 PM,69.3,35.8,29,29.88,10.0,West,3.5,-,N/A,,Clear,270,2013-03-19 21:35:00
5:55 PM,69.1,33.6,27,29.88,10.0,West,9.2,-,N/A,,Clear,260,2013-03-19 21:55:00
6:15 PM,68.9,32.9,26,29.90,10.0,Calm,Calm,-,N/A,,Clear,0,2013-03-19 22:15:00
6:35 PM,68.0,32.2,26,29.90,10.0,West,6.9,-,N/A,,Clear,280,2013-03-19 22:35:00
6:55 PM,66.7,32.4,28,29.91,10.0,Calm,Calm,-,N/A,,Clear,0,2013-03-19 22:55:00
7:15 PM,64.8,33.4,31,29.91,10.0,Calm,Calm,-,N/A,,Clear,0,2013-03-19 23:15:00
7:35 PM,62.2,35.2,37,29.92,10.0,Calm,Calm,-,N/A,,Clear,0,2013-03-19 23:35:00
7:55 PM,59.4,38.3,46,29.93,10.0,Calm,Calm,-,N/A,,Clear,0,2013-03-19 23:55:00
8:15 PM,56.5,39.0,52,29.93,10.0,Calm,Calm,-,N/A,,Clear,0,2013-03-20 00:15:00
8:35 PM,54.9,39.0,55,29.94,10.0,Calm,Calm,-,N/A,,Clear,0,2013-03-20 00:35:00
8:55 PM,53.2,38.7,58,29.96,10.0,Calm,Calm,-,N/A,,Clear,0,2013-03-20 00:55:00
9:15 PM,52.5,37.4,56,29.97,10.0,Calm,Calm,-,N/A,,Clear,0,2013-03-20 01:15:00
9:35 PM,52.3,38.5,59,29.98,10.0,Calm,Calm,-,N/A,,Clear,0,2013-03-20 01:35:00
9:55 PM,51.8,36.9,57,29.98,10.0,Calm,Calm,-,N/A,,Clear,0,2013-03-20 01:55:00
10:15 PM,50.5,37.2,60,29.98,10.0,Calm,Calm,-,N/A,,Clear,0,2013-03-20 02:15:00
10:35 PM,49.6,36.1,60,29.98,10.0,Calm,Calm,-,N/A,,Clear,0,2013-03-20 02:35:00
10:55 PM,48.9,37.6,65,29.98,10.0,Calm,Calm,-,N/A,,Clear,0,2013-03-20 02:55:00
11:15 PM,48.4,38.3,68,29.99,10.0,Calm,Calm,-,N/A,,Clear,0,2013-03-20 03:15:00
11:35 PM,51.6,31.6,46,29.99,10.0,Calm,Calm,-,N/A,,Clear,0,2013-03-20 03:35:00
11:55 PM,52.9,28.9,40,30.00,10.0,Calm,Calm,-,N/A,,Clear,0,2013-03-20 03:55:00